GLOBALSTAR M001 1 25162U 98008A 08130.16596240 -.00000084 00000-0 10000-3 0 9724 2 25162 52.0012 154.1446 0001382 47.7000 312.3979 12.37975561469903 GLOBALSTAR M004 1 25163U 98008B 08129.77042331 -.00000086 00000-0 10000-3 0 12 2 25163 52.0013 31.8507 0004011 119.2318 240.8934 12.63142882472072 GLOBALSTAR M002 1 25164U 98008C 08129.78140445 -.00000071 00000-0 10000-3 0 8954 2 25164 52.0014 65.5723 0000348 350.6977 9.3835 11.61420852458096 GLOBALSTAR M003 1 25165U 98008D 08130.05694829 -.00000086 00000-0 10000-3 0 90 2 25165 51.9960 34.5154 0000881 66.3217 293.7701 12.62252137472019 GLOBALSTAR M014 1 25306U 98023A 08128.87640763 -.00000084 00000-0 10000-3 0 9625 2 25306 51.9929 41.6795 0009893 4.2482 355.8464 12.38371359457300 GLOBALSTAR M006 1 25307U 98023B 08130.06931776 -.00000086 00000-0 10000-3 0 7155 2 25307 51.9967 80.5264 0000202 33.5029 326.5834 12.62266012463188 GLOBALSTAR M015 1 25308U 98023C 08129.81193682 -.00000086 00000-0 10000-3 0 7276 2 25308 51.9947 80.7900 0001600 30.7131 329.3825 12.62260658463150 GLOBALSTAR M008 1 25309U 98023D 08129.79213377 -.00000086 00000-0 10000-3 0 7009 2 25309 51.9931 80.7050 0000610 166.1715 193.9166 12.62261954463166 GLOBALSTAR M023 1 25621U 99004A 08130.10644218 -.00000086 00000-0 10000-3 0 6880 2 25621 52.0134 353.1253 0009040 9.0570 351.0452 12.62202747426723 GLOBALSTAR M040 1 25622U 99004B 08130.06426574 -.00000086 00000-0 10000-3 0 6700 2 25622 51.9945 349.5794 0002418 92.2083 267.9062 12.62266084426733 GLOBALSTAR M036 1 25623U 99004C 08129.62874451 -.00000086 00000-0 10000-3 0 6342 2 25623 52.0030 352.5557 0001526 102.1760 257.9278 12.62266076426698 GLOBALSTAR M038 1 25624U 99004D 08129.59652763 -.00000086 00000-0 10000-3 0 6350 2 25624 52.0032 308.4370 0002448 118.1229 241.9885 12.62259292427437 GLOBALSTAR M022 1 25649U 99012A 08129.12454162 -.00000084 00000-0 10000-3 0 6222 2 25649 52.0068 145.4983 0001092 170.0162 190.0719 12.38619578421927 GLOBALSTAR M041 1 25650U 99012B 08129.45975272 -.00000086 00000-0 10000-3 0 6468 2 25650 52.0059 129.2970 0000662 306.6402 53.4399 12.62265343422236 GLOBALSTAR M046 1 25651U 99012C 08129.50754254 -.00000086 00000-0 10000-3 0 6527 2 25651 52.0014 127.4303 0000884 252.3141 107.7629 12.62265588422220 GLOBALSTAR M037 1 25652U 99012D 08129.46795625 -.00000086 00000-0 10000-3 0 6261 2 25652 52.0009 128.8400 0001608 236.7894 123.2824 12.62265915422183 GLOBALSTAR M045 1 25676U 99019A 08129.48773291 -.00000086 00000-0 10000-3 0 7475 2 25676 51.9934 126.9151 0000709 297.4797 62.6003 12.62266490419789 GLOBALSTAR M019 1 25677U 99019B 08130.13368514 -.00000086 00000-0 10000-3 0 6466 2 25677 51.9928 169.7698 0000518 292.3035 67.7781 12.62258364419815 GLOBALSTAR M044 1 25678U 99019C 08129.13148951 -.00000086 00000-0 10000-3 0 6512 2 25678 52.0005 129.7297 0000638 272.9028 87.1761 12.62265304419089 GLOBALSTAR M042 1 25679U 99019D 08130.16345215 -.00000086 00000-0 10000-3 0 7308 2 25679 52.0023 216.1931 0002042 179.0510 181.0360 12.62258856418385 GLOBALSTAR M025 1 25770U 99031A 08129.24268253 -.00000086 00000-0 10000-3 0 5888 2 25770 51.9950 173.0038 0000552 224.5273 135.5550 12.62259176411024 GLOBALSTAR M049 1 25771U 99031B 08129.69792588 -.00000086 00000-0 10000-3 0 7939 2 25771 51.9940 171.2510 0001213 202.5804 157.5009 12.62258109411084 GLOBALSTAR M047 1 25772U 99031C 08129.51984386 -.00000086 00000-0 10000-3 0 6658 2 25772 51.9945 171.7534 0000851 244.0259 116.0506 12.62260742411069 GLOBALSTAR M052 1 25773U 99031D 08128.63241240 -.00000086 00000-0 10000-3 0 7679 2 25773 51.9903 173.4444 0001373 214.0553 146.0221 12.62263760410954 GLOBALSTAR M035 1 25851U 99037A 08129.74836517 -.00000084 00000-0 00000+0 0 5505 2 25851 52.0020 17.5365 0001616 67.8952 292.2060 11.92949764404450 GLOBALSTAR M032 1 25852U 99037B 08130.18324773 -.00000086 00000-0 10000-3 0 5712 2 25852 52.0012 215.2925 0001951 167.9056 192.1859 12.62258448407389 GLOBALSTAR M051 1 25853U 99037C 08129.41358726 -.00000086 00000-0 10000-3 0 5767 2 25853 52.0004 217.5907 0001345 116.7088 243.3806 12.62268578407285 GLOBALSTAR M030 1 25854U 99037D 08130.22519458 -.00000086 00000-0 10000-3 0 5805 2 25854 52.0006 215.3910 0000820 178.5133 181.5741 12.62263320407384 GLOBALSTAR M048 1 25872U 99041A 08129.74262901 -.00000086 00000-0 10000-3 0 6152 2 25872 52.0061 262.7932 0002232 154.5900 205.5073 12.62258631405449 GLOBALSTAR M026 1 25873U 99041B 08129.15120938 -.00000086 00000-0 10000-3 0 5981 2 25873 52.0063 264.8884 0001186 152.3429 207.7499 12.62267242405365 GLOBALSTAR M043 1 25874U 99041C 08129.80198785 -.00000086 00000-0 10000-3 0 6058 2 25874 52.0052 262.7564 0001196 126.8303 233.2671 12.62270074405446 GLOBALSTAR M028 1 25875U 99041D 08129.78223947 -.00000086 00000-0 10000-3 0 5795 2 25875 52.0044 262.5367 0001667 140.9909 219.1075 12.62256387405441 GLOBALSTAR M024 1 25883U 99043A 08129.00278513 -.00000086 00000-0 10000-3 0 5857 2 25883 52.0090 310.8957 0002119 117.8728 242.2355 12.62258694402468 GLOBALSTAR M027 1 25884U 99043B 08130.01237246 -.00000086 00000-0 10000-3 0 5792 2 25884 52.0089 307.7137 0001053 91.4727 268.6261 12.62258620402595 GLOBALSTAR M054 1 25885U 99043C 08129.03736457 -.00000084 00000-0 10000-3 0 5632 2 25885 52.0083 96.0780 0002076 53.5801 306.5234 12.38264862399854 GLOBALSTAR M053 1 25886U 99043D 08129.98373845 -.00000086 00000-0 10000-3 0 5884 2 25886 52.0099 307.8339 0001002 125.6927 234.4040 12.62264443402595 GLOBALSTAR M058 1 25907U 99049A 08130.03698310 -.00000086 00000-0 10000-3 0 5834 2 25907 51.9982 305.4783 0001622 111.9931 248.1107 12.62265943398851 GLOBALSTAR M050 1 25908U 99049B 08129.15757525 -.00000084 00000-0 10000-3 0 5872 2 25908 52.0040 3.3947 0003801 74.0183 286.1092 12.39958998397783 GLOBALSTAR M033 1 25909U 99049C 08130.05183647 -.00000086 00000-0 10000-3 0 5795 2 25909 51.9993 305.7937 0001899 115.9021 244.2040 12.62264504398832 GLOBALSTAR M055 1 25910U 99049D 08130.08418137 -.00000086 00000-0 10000-3 0 6000 2 25910 52.0026 350.6073 0001738 91.5683 268.5413 12.62263516398091 GLOBALSTAR M057 1 25943U 99058A 08128.95590086 -.00000086 00000-0 10000-3 0 3011 2 25943 51.9990 84.3266 0000785 289.0680 71.0050 12.62262861394656 GLOBALSTAR M059 1 25944U 99058B 08130.16833184 -.00000086 00000-0 10000-3 0 5659 2 25944 52.0032 80.7866 0001574 8.7246 351.3632 12.62268553394837 GLOBALSTAR M056 1 25945U 99058C 08129.78080774 -.00000086 00000-0 10000-3 0 8951 2 25945 51.9988 35.7821 0000853 198.2420 161.8407 12.62280908395524 GLOBALSTAR M031 1 25946U 99058D 08129.79966476 -.00000086 00000-0 10000-3 0 5840 2 25946 51.9983 36.3976 0003714 58.8695 301.2522 12.62259153395540 GLOBALSTAR M039 1 25961U 99062A 08130.20307686 -.00000086 00000-0 10000-3 0 8665 2 25961 51.9942 214.3313 0001812 168.0844 192.0070 12.62262761391215 GLOBALSTAR M034 1 25962U 99062B 08129.52470100 -.00000104 00000-0 00000+0 0 9028 2 25962 51.9982 262.5262 0003143 152.2417 207.8617 12.62264274390344 GLOBALSTAR M029 1 25963U 99062C 08129.80689307 -.00000086 00000-0 10000-3 0 8800 2 25963 51.9964 350.6638 0002148 85.7675 274.3431 12.62266817400879 GLOBALSTAR M061 1 25964U 99062D 08130.11328277 -.00000074 00000-0 10000-3 0 5346 2 25964 51.9769 152.2675 0005937 103.9076 256.2419 11.76677205385921 GLOBALSTAR M063 1 26081U 00008A 08130.06660355 -.00000086 00000-0 10000-3 0 6343 2 26081 51.9995 35.5368 0001449 71.3892 288.7122 12.62263604388949 GLOBALSTAR M062 1 26082U 00008B 08129.55720370 -.00000086 00000-0 10000-3 0 5428 2 26082 52.0029 173.3913 0001349 206.1384 153.9414 12.62260921380588 GLOBALSTAR M060 1 26083U 00008C 08129.36905397 -.00000086 00000-0 10000-3 0 6298 2 26083 52.0038 84.2938 0000552 47.5926 312.4984 12.62259512388069 GLOBALSTAR M064 1 26084U 00008D 08130.10607496 -.00000086 00000-0 10000-3 0 8441 2 26084 52.0062 36.6513 0001465 52.3708 307.7263 12.62268794406906 GLOBALSTAR M065 1 31571U 07020A 08130.23003955 -.00000090 00000-0 74207-4 0 3128 2 31571 51.9896 170.1857 0001268 262.7913 97.2827 12.62259069 44705 GLOBALSTAR M069 1 31573U 07020C 08128.94823278 -.00000086 00000-0 10000-3 0 1968 2 31573 51.9921 129.3055 0000243 51.2157 308.8731 12.62260663 45275 GLOBALSTAR M072 1 31574U 07020D 08130.16575322 -.00000071 00000-0 18277-3 0 3050 2 31574 52.0100 215.9864 0001322 190.3367 169.7473 12.62270432 43937 GLOBALSTAR M071 1 31576U 07020F 08128.90855300 -.00000086 00000-0 10000-3 0 2138 2 31576 52.0037 129.4891 0000598 172.1892 187.8998 12.62260813 45265 GLOBALSTAR M067 1 32263U 07048A 08129.10144203 -.00000104 00000-0 00000+0 0 2550 2 32263 51.9783 353.8317 0001870 80.5440 279.5480 12.62261319 26970 GLOBALSTAR M070 1 32264U 07048B 08129.32918021 -.00000086 00000-0 10000-3 0 1982 2 32264 51.9754 83.1387 0000062 352.7353 7.3507 12.62261447 25493 GLOBALSTAR M066 1 32265U 07048C 08129.60159749 -.00000104 00000-0 00000+0 0 2547 2 32265 51.9691 307.4490 0000669 93.9428 266.1518 12.62270973 27753 GLOBALSTAR M068 1 32266U 07048D 08129.78389615 -.00000148 00000-0 00000+0 0 2575 2 32266 51.9824 294.9773 0017898 80.3849 279.9100 13.90948532 27962